Location: Newark
(15.4608°S, 41.1635°W)
Time: 05:53:01
(UTC+00:00)

Envisat - Visible Passes

Search period start: 08 December 2019 00:00
Search period end: 18 December 2019 00:00
Orbit: 764 x 766 km, 98.1° (Epoch: 07 December)

Date Brightness Start Highest point End Pass type
(mag) Time Alt. Az. Time Alt. Az. Time Alt. Az.
08 Dec 4.9 21:55:31 10° SSW 22:00:04 33° WSW 22:04:35 10° NW visible
10 Dec 6.0 22:22:12 10° SW 22:25:23 17° WSW 22:28:32 10° WNW visible
11 Dec 4.3 21:44:00 10° S 21:48:50 45° WSW 21:53:39 10° NNW visible
13 Dec 5.6 22:10:17 10° SSW 22:14:11 22° WSW 22:18:04 10° NW visible
14 Dec 3.7 21:32:34 10° S 21:37:36 61° WSW 21:42:35 10° NNW visible
15 Dec 6.4 22:38:17 10° WSW 22:39:27 11° WSW 22:40:37 10° W visible
16 Dec 5.2 21:58:34 10° SSW 22:02:58 30° WSW 22:07:20 10° NW visible
